Date String (YYYY-MM-DD hh:mm:ss) UTC,Instrument flags,absolute air pressure of the measurement (hPa),sample flow rate (lpm),inlet stack bypass flow (lpm),air temperature of the measurement (°C),ambient temperature measured by the external sensor (°C),aerosol sample conditioner tube jacket temperature (°C),OPC LED temperature (°C),internal box temperature (°C),relative humidity of the measurement (%),span deviation,mass concentration of particles derived from Lorenz-Mie calculation of OPC scattering (μg/m³),mass concentration of particles derived from Lorenz-Mie calculation of OPC scattering (μg/m³),mass concentration of particles derived from Lorenz-Mie calculation of OPC scattering (μg/m³)
DateTimeUTC,F1_M11,P_M11,Q1_M11,Q2_M11,T1_M11,T2_M11,T3_M11,T4_M11,T5_M11,U1_M11,ZSPAN_M11,X2_M11,X0_M11,X1_M11
2024-05-02 23:00:00,SystemResetWarning,0824.4,4.99,000.00,025.6,024.9,000.0,033.9,027.3,012.0,0000.0,0005.45,0036.28,0003.24
2024-05-02 23:01:00,SystemResetWarning,0824.4,5.01,000.00,025.6,024.9,000.0,033.9,027.3,011.7,0000.0,0005.27,0031.46,0003.22
2024-05-02 23:02:00,SystemResetWarning,0824.5,5.01,000.00,025.6,025.0,000.0,033.9,027.4,011.4,0000.0,0005.14,0029.85,0003.21
2024-05-02 23:03:00,SystemResetWarning,0824.5,4.99,000.00,025.6,025.0,000.0,033.9,027.3,011.3,0000.0,0005.05,0025.88,0003.20
2024-05-02 23:04:00,SystemResetWarning,0824.5,4.99,000.00,025.6,025.0,000.0,033.9,027.3,011.5,0000.0,0004.98,0022.90,0003.19
2024-05-02 23:05:00,SystemResetWarning,0824.5,5.00,000.00,025.6,025.0,000.0,033.9,027.4,011.3,0000.0,0004.91,0021.16,0003.17
2024-05-02 23:06:00,SystemResetWarning,0824.5,5.01,000.00,025.6,025.0,000.0,033.9,027.4,012.0,0000.0,0004.86,0021.46,0003.16
2024-05-02 23:07:00,SystemResetWarning,0824.5,5.00,000.00,025.6,025.0,000.0,033.9,027.4,012.3,0000.0,0004.85,0021.21,0003.16
2024-05-02 23:08:00,SystemResetWarning,0824.5,4.99,000.00,025.6,025.0,000.0,033.9,027.4,012.6,0000.0,0004.84,0019.71,0003.16
2024-05-02 23:09:00,SystemResetWarning,0824.5,5.01,000.00,025.7,025.1,000.0,034.0,027.5,012.8,0000.0,0004.78,0018.62,0003.14
2024-05-02 23:10:00,SystemResetWarning,0824.5,5.01,000.00,025.7,025.1,000.0,034.0,027.5,013.0,0000.0,0004.73,0017.25,0003.13
2024-05-02 23:11:00,SystemResetWarning,0824.5,4.99,000.00,025.7,025.1,000.0,034.0,027.5,012.2,0000.0,0004.68,0015.14,0003.12
2024-05-02 23:12:00,SystemResetWarning,0824.5,5.00,000.00,025.7,025.2,000.0,034.0,027.6,012.8,0000.0,0004.65,0014.68,0003.12
2024-05-02 23:13:00,SystemResetWarning,0824.5,5.00,000.00,025.8,025.2,000.0,034.0,027.6,012.7,0000.0,0004.71,0013.73,0003.10
2024-05-02 23:14:00,SystemResetWarning,0824.5,4.99,000.00,025.8,025.2,000.0,034.0,027.6,012.6,0000.0,0004.71,0013.40,0003.09
2024-05-02 23:15:00,SystemResetWarning,0824.5,4.99,000.00,025.8,025.2,000.0,034.1,027.5,012.6,0000.0,0004.74,0013.40,0003.10
2024-05-02 23:16:00,SystemResetWarning,0824.5,5.01,000.00,025.8,025.1,000.0,034.1,027.5,011.9,0000.0,0004.72,0013.37,0003.10
2024-05-02 23:17:00,SystemResetWarning,0824.5,5.00,000.00,025.8,025.1,000.0,034.1,027.5,011.7,0000.0,0004.73,0012.96,0003.11
2024-05-02 23:18:00,SystemResetWarning,0824.6,4.99,000.00,025.8,025.1,000.0,034.1,027.6,011.4,0000.0,0004.74,0013.02,0003.13
2024-05-02 23:19:00,SystemResetWarning,0824.5,4.99,000.00,025.8,025.1,000.0,034.1,027.6,011.7,0000.0,0004.69,0012.91,0003.15
2024-05-02 23:20:00,SystemResetWarning,0824.5,5.01,000.00,025.8,025.2,000.0,034.1,027.6,012.3,0000.0,0004.71,0012.71,0003.17
2024-05-02 23:21:00,SystemResetWarning,0824.6,5.01,000.00,025.8,025.2,000.0,034.1,027.6,012.1,0000.0,0004.74,0012.70,0003.21
2024-05-02 23:22:00,SystemResetWarning,0824.6,5.00,000.00,025.8,025.2,000.0,034.1,027.6,012.3,0000.0,0004.73,0013.01,0003.23
2024-05-02 23:23:00,SystemResetWarning,0824.7,5.00,000.00,025.8,025.2,000.0,034.1,027.6,012.0,0000.0,0004.76,0013.04,0003.25
2024-05-02 23:24:00,SystemResetWarning,0824.7,5.00,000.00,025.9,025.2,000.0,034.1,027.6,012.1,0000.0,0004.75,0012.94,0003.27
2024-05-02 23:25:00,SystemResetWarning,0824.7,5.00,000.00,025.9,025.2,000.0,034.2,027.7,012.2,0000.0,0004.73,0013.24,0003.28
2024-05-02 23:26:00,SystemResetWarning,0824.7,4.99,000.00,025.9,025.2,000.0,034.2,027.6,012.5,0000.0,0004.71,0013.56,0003.28
2024-05-02 23:27:00,SystemResetWarning,0824.7,5.00,000.00,025.9,025.2,000.0,034.2,027.6,013.0,0000.0,0004.69,0013.69,0003.28
2024-05-02 23:28:00,SystemResetWarning,0824.7,5.01,000.00,025.9,025.2,000.0,034.2,027.7,013.1,0000.0,0004.72,0013.71,0003.28
2024-05-02 23:29:00,SystemResetWarning,0824.7,5.01,000.00,025.9,025.3,000.0,034.2,027.7,012.4,0000.0,0004.71,0013.95,0003.27
2024-05-02 23:30:00,SystemResetWarning,0824.7,5.01,000.00,025.9,025.3,000.0,034.2,027.7,012.8,0000.0,0004.70,0014.23,0003.24
2024-05-02 23:31:00,SystemResetWarning,0824.7,5.00,000.00,025.9,025.3,000.0,034.2,027.7,012.4,0000.0,0004.73,0014.56,0003.22
2024-05-02 23:32:00,SystemResetWarning,0824.6,5.00,000.00,025.9,025.3,000.0,034.2,027.7,012.9,0000.0,0004.68,0014.66,0003.19
2024-05-02 23:33:00,SystemResetWarning,0824.6,4.99,000.00,026.0,025.4,000.0,034.2,027.8,012.9,0000.0,0004.66,0014.67,0003.15
2024-05-02 23:34:00,SystemResetWarning,0824.6,4.99,000.00,026.0,025.4,000.0,034.3,027.8,012.4,0000.0,0004.63,0014.37,0003.12
2024-05-02 23:35:00,SystemResetWarning,0824.7,5.01,000.00,026.0,025.4,000.0,034.3,027.8,012.5,0000.0,0004.60,0014.50,0003.12
2024-05-02 23:36:00,SystemResetWarning,0824.7,5.01,000.00,026.0,025.4,000.0,034.3,027.7,012.4,0000.0,0004.53,0014.25,0003.10
2024-05-02 23:37:00,SystemResetWarning,0824.7,4.98,000.00,026.0,025.4,000.0,034.3,027.7,012.6,0000.0,0004.52,0014.70,0003.09
2024-05-02 23:38:00,SystemResetWarning,0824.7,5.00,000.00,026.0,025.4,000.0,034.3,027.7,012.6,0000.0,0004.52,0014.58,0003.08
2024-05-02 23:39:00,SystemResetWarning,0824.7,5.01,000.00,026.0,025.3,000.0,034.3,027.7,013.1,0000.0,0004.53,0015.31,0003.06
2024-05-02 23:40:00,SystemResetWarning,0824.6,5.01,000.00,026.0,025.3,000.0,034.3,027.7,013.2,0000.0,0004.49,0015.88,0003.04
2024-05-02 23:41:00,SystemResetWarning,0824.6,4.99,000.00,026.0,025.3,000.0,034.3,027.8,013.3,0000.0,0004.52,0017.33,0003.05
2024-05-02 23:42:00,SystemResetWarning,0824.6,4.99,000.00,026.0,025.4,000.0,034.3,027.8,013.4,0000.0,0004.57,0018.36,0003.05
2024-05-02 23:43:00,SystemResetWarning,0824.6,5.01,000.00,026.0,025.4,000.0,034.3,027.8,013.3,0000.0,0004.59,0018.31,0003.03
2024-05-02 23:44:00,SystemResetWarning,0824.6,5.01,000.00,026.0,025.4,000.0,034.3,027.8,013.8,0000.0,0004.62,0018.72,0003.04
2024-05-02 23:45:00,SystemResetWarning,0824.7,5.00,000.00,026.0,025.4,000.0,034.4,027.8,013.2,0000.0,0004.61,0018.70,0003.02
2024-05-02 23:46:00,SystemResetWarning,0824.7,4.99,000.00,026.0,025.4,000.0,034.4,027.8,013.5,0000.0,0004.58,0018.60,0002.99
2024-05-02 23:47:00,SystemResetWarning,0824.7,5.00,000.00,026.0,025.4,000.0,034.3,027.7,013.8,0000.0,0004.64,0019.66,0002.97
2024-05-02 23:48:00,SystemResetWarning,0824.7,4.99,000.00,026.0,025.3,000.0,034.4,027.8,013.6,0000.0,0004.69,0020.83,0002.96
2024-05-02 23:49:00,SystemResetWarning,0824.7,5.00,000.00,026.0,025.3,000.0,034.4,027.8,013.4,0000.0,0004.70,0021.06,0002.94
2024-05-02 23:50:00,SystemResetWarning,0824.7,5.00,000.00,026.0,025.3,000.0,034.4,027.8,013.6,0000.0,0004.67,0020.21,0002.92
2024-05-02 23:51:00,SystemResetWarning,0824.7,5.00,000.00,026.0,025.3,000.0,034.4,027.7,012.8,0000.0,0004.62,0019.41,0002.91
2024-05-02 23:52:00,SystemResetWarning,0824.7,5.00,000.00,026.0,025.3,000.0,034.4,027.7,012.7,0000.0,0004.62,0017.62,0002.89
2024-05-02 23:53:00,SystemResetWarning,0824.7,5.00,000.00,026.0,025.3,000.0,034.4,027.7,012.9,0000.0,0004.57,0015.92,0002.89
2024-05-02 23:54:00,SystemResetWarning,0824.7,4.99,000.00,026.0,025.3,000.0,034.4,027.7,012.9,0000.0,0004.56,0016.00,0002.92
2024-05-02 23:55:00,SystemResetWarning,0824.7,4.99,000.00,025.8,023.8,000.0,034.4,026.8,013.0,0000.0,0004.54,0015.56,0002.92
2024-05-02 23:56:00,SystemResetWarning,0824.6,5.01,000.00,025.3,021.7,000.0,034.4,025.7,013.7,0000.0,0004.58,0016.15,0002.94
2024-05-02 23:57:00,SystemResetWarning,0824.6,5.01,000.00,025.0,021.6,000.0,034.3,025.5,013.5,0000.0,0004.63,0016.50,0002.94
2024-05-02 23:58:00,SystemResetWarning,0824.6,4.99,000.00,024.9,022.1,000.0,034.1,025.8,014.1,0000.0,0004.54,0015.01,0002.95
2024-05-02 23:59:00,SystemResetWarning,0824.7,4.99,000.00,024.9,022.5,000.0,033.9,026.2,014.7,0000.0,0004.49,0014.39,0002.94
